This is the latest recevied weather packets stored in our database for station/object IU0KRR-10. If no packets are shown the sender has not sent any weather packets the latest 10 day(s).
| Time | Temp. | Humidity | Pressure | Rain* | Wind** | Luminosity | Snow |
|---|---|---|---|---|---|---|---|
| 1787705869 | 18.33° C | 70% | 875.7 hPa | - | - | - | - |
| 1787704969 | 17.78° C | 70% | 875.5 hPa | - | - | - | - |
| 1787704068 | 17.78° C | 71% | 875.4 hPa | - | - | - | - |
| 1787703168 | 17.78° C | 73% | 875.6 hPa | - | - | - | - |
| 1787702267 | 17.78° C | 73% | 875.6 hPa | - | - | - | - |
| 1787701366 | 17.78° C | 73% | 875.5 hPa | - | - | - | - |
| 1787700466 | 17.78° C | 79% | 875.5 hPa | - | - | - | - |
| 1787699566 | 17.78° C | 81% | 875.5 hPa | - | - | - | - |
| 1787698665 | 17.78° C | 80% | 875.6 hPa | - | - | - | - |
| 1787697764 | 17.78° C | 90% | 875.5 hPa | - | - | - | - |
| 1787696863 | 17.78° C | 93% | 875.5 hPa | - | - | - | - |
| 1787695962 | 17.78° C | 93% | 875.4 hPa | - | - | - | - |
| 1787695062 | 17.78° C | 94% | 875.3 hPa | - | - | - | - |
| 1787694161 | 17.78° C | 100% | 875.2 hPa | - | - | - | - |
| 1787693260 | 17.78° C | 99% | 875.2 hPa | - | - | - | - |
| 1787692359 | 18.33° C | 99% | 875.1 hPa | - | - | - | - |
| 1787691459 | 18.33° C | 100% | 875 hPa | - | - | - | - |
| 1787690557 | 18.33° C | 99% | 874.9 hPa | - | - | - | - |
| 1787689657 | 18.89° C | 100% | 874.9 hPa | - | - | - | - |
| 1787688756 | 18.89° C | 100% | 874.8 hPa | - | - | - | - |
| 1787687855 | 18.89° C | 99% | 874.7 hPa | - | - | - | - |
| 1787686954 | 19.44° C | 99% | 874.6 hPa | - | - | - | - |
| 1787686053 | 19.44° C | 100% | 874.5 hPa | - | - | - | - |
| 1787685153 | 19.44° C | 99% | 874.4 hPa | - | - | - | - |
| 1787684291 | 19.44° C | 95% | 874.4 hPa | - | - | - | - |
* Rain since midnight (hover to see other rain measurements)
** Current wind speed in m/s (hover to see current wind gust speed)